Regional Weather Roundup
Issued by NWS

Home | Current Version | Previous Version | Graphics & Text | Print | Product List | Glossary On
Versions: 1 2 3 4 5 6 7 8 9 10 11 12 13 14 15 16 17 18 19 20 21 22 23 24 25 26 27 28 29 30 31 32 33 34 35 36 37 38 39 40 41 42 43 44 45 46 47 48 49 50
000
ASUS43 KOAX 012002
RWRNE

WEATHER ROUNDUP FOR NEBRASKA
NATIONAL WEATHER SERVICE OMAHA NE
300 PM CDT SUN MAY 01 2016

NOTES: SATELLITE DATA IS BEING USED TO AUGMENT CLOUD COVER ABOVE
       12000 FEET.
       "FAIR" INDICATES FEW OR NO CLOUDS BELOW 12,000 FEET WITH NO
       SIGNIFICANT WEATHER AND/OR OBSTRUCTIONS TO VISIBILITY.

  * THESE STATIONS DO NOT REPORT WEATHER SUCH AS RAIN...SNOW OR FOG.

NEZ001>004-019>022-054>056-012100-
NEBRASKA PANHANDLE

CITY           SKY/WX    TMP DP  RH WIND       PRES   REMARKS
SCOTTSBLUFF    MOSUNNY   50  28  42 N14       30.28F
ALLIANCE       MOSUNNY   42  32  67 NW7       30.26F
CHADRON        MOSUNNY   55  30  38 N15       30.27F
KIMBALL        SUNNY     40  28  62 N13       30.28F WCI  32
SIDNEY         SUNNY     43  30  60 N9        30.28F
$$

NEZ057>060-069>072-079>082-012100-
SOUTHWEST NEBRASKA

CITY           SKY/WX    TMP DP  RH WIND       PRES   REMARKS
NORTH PLATTE   MOSUNNY   53  35  50 N22G28    30.21F
IMPERIAL       PTSUNNY   52  33  48 N25G33    30.22F
LEXINGTON      CLOUDY    50  38  64 NE18      30.20S
MCCOOK         CLOUDY    52  36  54 N21       30.18F
$$

NEZ005>010-023>029-035>040-094-012100-
NORTH CENTRAL NEBRASKA

CITY           SKY/WX    TMP DP  RH WIND       PRES   REMARKS
VALENTINE      MOSUNNY   55  30  38 N17G24    30.24F
AINSWORTH      MOSUNNY   54  33  45 N22G30    30.22S
BROKEN BOW     PTSUNNY   53  38  56 NE20      30.19F
ORD            PTSUNNY   51  40  65 N15G26    30.19S
$$

NEZ041-046>049-061>064-073>077-083>087-012100-
SOUTH CENTRAL NEBRASKA

CITY           SKY/WX    TMP DP  RH WIND       PRES   REMARKS
GRAND ISLAND   CLOUDY    46  39  76 N17       30.19R
AURORA         CLOUDY    47  43  86 N13       30.18R
HASTINGS       CLOUDY    46  39  76 N15       30.18R
KEARNEY *      CLOUDY    46  37  71 N16       30.20S
YORK           CLOUDY    46  41  81 N20       30.16R
$$

NEZ011>018-030>034-042>045-012100-
NORTHEAST NEBRASKA

CITY           SKY/WX    TMP DP  RH WIND       PRES   REMARKS
NORFOLK        CLOUDY    49  40  71 N16G23    30.16F
ALBION         CLOUDY    47  41  79 N17G24    30.18S
BLAIR          CLOUDY    47  44  90 N10       30.12R
COLUMBUS *     CLOUDY    48  37  66 N16G22    30.16S
FREMONT        CLOUDY    47  41  80 N15G21    30.14S
TEKAMAH        CLOUDY    49  44  83 N22       30.14S
$$

NEZ050>053-065>068-078-088>093-012100-
SOUTHEAST NEBRASKA

CITY           SKY/WX    TMP DP  RH WIND       PRES   REMARKS
LINCOLN        CLOUDY    48  41  76 N16       30.14R
OMAHA EPPLEY   LGT RAIN  49  43  80 N18       30.12R
BEATRICE       CLOUDY    49  42  79 N16       30.12R
FALLS CITY     CLOUDY    51  45  79 N14G22    30.06S
NEBRASKA CITY  CLOUDY    48  48  97 N17       30.09R
$$

NEZ044-045-051>053-067-012100-
OMAHA AREA

CITY           SKY/WX    TMP DP  RH WIND       PRES   REMARKS
OMAHA EPPLEY   LGT RAIN  49  43  80 N18       30.12R
BLAIR          CLOUDY    47  44  90 N10       30.12R
FREMONT        CLOUDY    47  41  80 N15G21    30.14S
OFFUTT AFB     CLOUDY    48  45  87 N13G21    30.11R
WAHOO          CLOUDY    48  43  82 N21       30.13R
$$



USA.gov is the U.S. government's official web portal to all federal, state and local government web resources and services.